| time (UTC) | temp F | wind direction | speed knots | gust knots | rain 1hr in | rain 24hr in | rain mn in | humidity % | barometer mb |
| 20260903143750 | 88 | 150 | 2.6 | 6.1 | 0.00 | 0.18 | 0.01 | 100 | 1016.4 |
| 20260903143250 | 87 | 192 | 3.5 | 5.2 | 0.00 | 0.18 | 0.01 | 100 | 1016.3 |
| 20260903143104 | 85 | 171 | 0.9 | 5.2 | 0.00 | 0.18 | 0.01 | 100 | 1016.4 |
| 20260903142750 | 85 | 171 | 0.9 | 5.2 | 0.00 | 0.18 | 0.01 | 100 | 1016.4 |
| 20260903142250 | 85 | 136 | 1.7 | 4.3 | 0.00 | 0.18 | 0.01 | 100 | 1016.5 |
| 20260903141750 | 88 | 143 | 0.9 | 4.3 | 0.00 | 0.18 | 0.01 | 100 | 1016.5 |
| 20260903141250 | 89 | 153 | 2.6 | 3.5 | 0.00 | 0.18 | 0.01 | 100 | 1016.5 |
| 20260903141131 | 86 | 139 | 1.7 | 6.1 | 0.00 | 0.18 | 0.01 | 100 | 1016.5 |
| 20260903140750 | 86 | 139 | 1.7 | 6.1 | 0.00 | 0.18 | 0.01 | 100 | 1016.5 |
| 20260903140609 | 90 | 157 | 3.5 | 7.0 | 0.00 | 0.18 | 0.01 | 100 | 1016.5 |
| 20260903140250 | 90 | 157 | 3.5 | 7.0 | 0.00 | 0.18 | 0.01 | 100 | 1016.5 |
| 20260903140106 | 87 | 98 | 0.9 | 5.2 | 0.00 | 0.18 | 0.01 | 100 | 1016.4 |
| 20260903135750 | 87 | 98 | 0.9 | 5.2 | 0.00 | 0.18 | 0.01 | 100 | 1016.4 |
| 20260903135514 | 87 | 164 | 2.6 | 5.2 | 0.00 | 0.18 | 0.01 | 100 | 1016.4 |
| 20260903135250 | 87 | 164 | 2.6 | 5.2 | 0.00 | 0.18 | 0.01 | 100 | 1016.4 |
| 20260903135009 | 88 | 187 | 3.5 | 6.1 | 0.00 | 0.18 | 0.01 | 100 | 1016.4 |
| 20260903134750 | 88 | 187 | 3.5 | 6.1 | 0.00 | 0.18 | 0.01 | 100 | 1016.4 |
| 20260903134250 | 87 | 172 | 4.3 | 5.2 | 0.00 | 0.18 | 0.01 | 100 | 1016.4 |
| 20260903134124 | 83 | 182 | 4.3 | 5.2 | 0.00 | 0.18 | 0.01 | 100 | 1016.5 |
| 20260903133750 | 83 | 182 | 4.3 | 5.2 | 0.00 | 0.18 | 0.01 | 100 | 1016.5 |
| 20260903133550 | 86 | 102 | 1.7 | 5.2 | 0.00 | 0.18 | 0.01 | 100 | 1016.5 |
| 20260903133250 | 86 | 102 | 1.7 | 5.2 | 0.00 | 0.18 | 0.01 | 100 | 1016.5 |
| 20260903133051 | 83 | 165 | 4.3 | 5.2 | 0.00 | 0.18 | 0.01 | 100 | 1016.5 |
| 20260903132828 | 83 | 165 | 4.3 | 5.2 | 0.00 | 0.18 | 0.01 | 100 | 1016.5 |
| 20260903132750 | 83 | 165 | 4.3 | 5.2 | 0.00 | 0.18 | 0.01 | 100 | 1016.5 |
| 20260903132617 | 84 | 164 | 0.9 | 4.3 | 0.00 | 0.18 | 0.01 | 100 | 1016.5 |
| 20260903132250 | 84 | 164 | 0.9 | 4.3 | 0.00 | 0.18 | 0.01 | 100 | 1016.5 |
| 20260903132121 | 83 | 143 | 1.7 | 4.3 | 0.00 | 0.18 | 0.01 | 100 | 1016.4 |
| 20260903131750 | 83 | 143 | 1.7 | 4.3 | 0.00 | 0.18 | 0.01 | 100 | 1016.4 |
| 20260903131528 | 84 | 168 | 4.3 | 4.3 | 0.00 | 0.18 | 0.01 | 100 | 1016.4 |
| 20260903131250 | 84 | 168 | 4.3 | 4.3 | 0.00 | 0.18 | 0.01 | 100 | 1016.4 |
| 20260903130750 | 84 | 102 | 1.7 | 5.2 | 0.01 | 0.18 | 0.01 | 100 | 1016.3 |
| 20260903130527 | 84 | 143 | 2.6 | 5.2 | 0.01 | 0.18 | 0.01 | 100 | 1016.3 |
| 20260903130250 | 84 | 143 | 2.6 | 5.2 | 0.01 | 0.18 | 0.01 | 100 | 1016.3 |
| 20260903125750 | 83 | 95 | 5.2 | 5.2 | 0.01 | 0.18 | 0.01 | 100 | 1016.3 |
| 20260903125250 | 83 | 91 | 2.6 | 4.3 | 0.01 | 0.18 | 0.01 | 100 | 1016.2 |
| 20260903125049 | 82 | 154 | 2.6 | 5.2 | 0.01 | 0.18 | 0.01 | 100 | 1016.1 |
| 20260903124750 | 82 | 154 | 2.6 | 5.2 | 0.01 | 0.18 | 0.01 | 100 | 1016.1 |
| 20260903124535 | 80 | 97 | 3.5 | 6.1 | 0.01 | 0.18 | 0.01 | 100 | 1016.2 |
| 20260903124250 | 80 | 97 | 3.5 | 6.1 | 0.01 | 0.18 | 0.01 | 100 | 1016.2 |
| 20260903124028 | 79 | 97 | 0.9 | 4.3 | 0.01 | 0.18 | 0.01 | 100 | 1016.1 |
| 20260903123750 | 79 | 97 | 0.9 | 4.3 | 0.01 | 0.18 | 0.01 | 100 | 1016.1 |
| 20260903123250 | 79 | 80 | 0.9 | 3.5 | 0.01 | 0.18 | 0.01 | 100 | 1016.1 |
| 20260903123004 | 78 | 144 | 2.6 | 5.2 | 0.01 | 0.18 | 0.01 | 100 | 1016.1 |
| 20260903122750 | 78 | 144 | 2.6 | 5.2 | 0.01 | 0.18 | 0.01 | 100 | 1016.1 |
| 20260903122616 | 78 | 133 | 0.9 | 2.6 | 0.01 | 0.18 | 0.01 | 100 | 1016.1 |
| 20260903122250 | 78 | 133 | 0.9 | 2.6 | 0.01 | 0.18 | 0.01 | 100 | 1016.1 |
| 20260903121750 | 78 | 56 | 0.0 | 0.0 | 0.01 | 0.18 | 0.01 | 100 | 1015.9 |
| 20260903121250 | 78 | 56 | 0.0 | 0.0 | 0.01 | 0.18 | 0.01 | 100 | 1015.9 |
| 20260903120751 | 78 | 56 | 0.0 | 0.0 | 0.00 | 0.17 | 0.00 | 100 | 1015.9 |
| 20260903120506 | 77 | 56 | 0.0 | 0.0 | 0.00 | 0.17 | 0.00 | 100 | 1015.8 |
| 20260903120251 | 77 | 56 | 0.0 | 0.0 | 0.00 | 0.17 | 0.00 | 100 | 1015.8 |
| 20260903115751 | 77 | 56 | 0.0 | 0.0 | 0.00 | 0.17 | 0.00 | 100 | 1015.6 |
| 20260903115251 | 77 | 56 | 0.0 | 0.0 | 0.00 | 0.17 | 0.00 | 100 | 1015.6 |
| 20260903115033 | 77 | 56 | 0.0 | 0.0 | 0.00 | 0.17 | 0.00 | 100 | 1015.5 |
| 20260903114751 | 77 | 56 | 0.0 | 0.0 | 0.00 | 0.17 | 0.00 | 100 | 1015.5 |
| 20260903114543 | 77 | 56 | 0.0 | 0.0 | 0.00 | 0.17 | 0.00 | 100 | 1015.3 |
| 20260903114251 | 77 | 56 | 0.0 | 0.0 | 0.00 | 0.17 | 0.00 | 100 | 1015.3 |
| 20260903113751 | 77 | 56 | 0.0 | 0.0 | 0.00 | 0.17 | 0.00 | 100 | 1015.3 |
| 20260903113251 | 76 | 56 | 0.0 | 0.0 | 0.00 | 0.17 | 0.00 | 100 | 1015.2 |
| 20260903113012 | 76 | 56 | 0.0 | 0.0 | 0.00 | 0.17 | 0.00 | 100 | 1015.0 |
| 20260903112751 | 76 | 56 | 0.0 | 0.0 | 0.00 | 0.17 | 0.00 | 100 | 1015.0 |
| 20260903112613 | 76 | 56 | 0.0 | 0.0 | 0.00 | 0.17 | 0.00 | 100 | 1015.2 |
| 20260903112251 | 76 | 56 | 0.0 | 0.0 | 0.00 | 0.17 | 0.00 | 100 | 1015.2 |
| 20260903112123 | 76 | 56 | 0.0 | 0.0 | 0.00 | 0.17 | 0.00 | 100 | 1015.2 |
| 20260903111751 | 76 | 56 | 0.0 | 0.0 | 0.00 | 0.17 | 0.00 | 100 | 1015.2 |
| 20260903111539 | 76 | 56 | 0.0 | 0.0 | 0.00 | 0.17 | 0.00 | 100 | 1015.1 |
| 20260903111251 | 76 | 56 | 0.0 | 0.0 | 0.00 | 0.17 | 0.00 | 100 | 1015.1 |
| 20260903110751 | 76 | 56 | 0.0 | 0.0 | 0.00 | 0.17 | 0.00 | 100 | 1015.1 |
| 20260903110251 | 76 | 56 | 0.0 | 0.0 | 0.00 | 0.17 | 0.00 | 100 | 1015.2 |
| 20260903110010 | 76 | 56 | 0.0 | 0.0 | 0.00 | 0.17 | 0.00 | 100 | 1015.2 |
| 20260903105751 | 76 | 56 | 0.0 | 0.0 | 0.00 | 0.17 | 0.00 | 100 | 1015.2 |
| 20260903105251 | 76 | 56 | 0.0 | 0.0 | 0.00 | 0.17 | 0.00 | 100 | 1015.2 |
| 20260903104751 | 76 | 56 | 0.0 | 0.0 | 0.00 | 0.17 | 0.00 | 100 | 1015.1 |
| 20260903104552 | 77 | 56 | 0.0 | 0.0 | 0.00 | 0.17 | 0.00 | 100 | 1015.0 |
| 20260903104251 | 77 | 56 | 0.0 | 0.0 | 0.00 | 0.17 | 0.00 | 100 | 1015.0 |
| 20260903104139 | 77 | 56 | 0.0 | 0.0 | 0.00 | 0.17 | 0.00 | 100 | 1014.9 |
| 20260903103751 | 77 | 56 | 0.0 | 0.0 | 0.00 | 0.17 | 0.00 | 100 | 1014.9 |
| 20260903103251 | 77 | 56 | 0.0 | 0.0 | 0.00 | 0.17 | 0.00 | 100 | 1014.9 |
| 20260903103036 | 77 | 56 | 0.0 | 0.0 | 0.00 | 0.17 | 0.00 | 100 | 1015.0 |
| 20260903102751 | 77 | 56 | 0.0 | 0.0 | 0.00 | 0.17 | 0.00 | 100 | 1015.0 |
| 20260903102251 | 77 | 56 | 0.0 | 0.0 | 0.00 | 0.17 | 0.00 | 100 | 1015.0 |
| 20260903101751 | 77 | 56 | 0.0 | 0.0 | 0.00 | 0.17 | 0.00 | 100 | 1014.9 |
| 20260903101534 | 77 | 56 | 0.0 | 0.0 | 0.00 | 0.17 | 0.00 | 100 | 1014.9 |
| 20260903101251 | 77 | 56 | 0.0 | 0.0 | 0.00 | 0.17 | 0.00 | 100 | 1014.9 |
| 20260903100751 | 77 | 56 | 0.0 | 0.0 | 0.00 | 0.17 | 0.00 | 100 | 1014.9 |
| 20260903100251 | 77 | 56 | 0.0 | 0.0 | 0.00 | 0.18 | 0.00 | 100 | 1014.7 |
| 20260903095751 | 77 | 56 | 0.0 | 0.0 | 0.00 | 0.18 | 0.00 | 100 | 1014.7 |
| 20260903095451 | 78 | 68 | 0.0 | 0.0 | 0.00 | 0.18 | 0.00 | 100 | 1014.9 |
| 20260903095251 | 77 | 56 | 0.0 | 0.0 | 0.00 | 0.18 | 0.00 | 100 | 1014.7 |
| 20260903094751 | 77 | 56 | 0.0 | 0.0 | 0.00 | 0.18 | 0.00 | 100 | 1014.5 |
| 20260903094251 | 77 | 56 | 0.0 | 0.0 | 0.00 | 0.18 | 0.00 | 100 | 1014.4 |
| 20260903093751 | 77 | 56 | 0.0 | 0.0 | 0.00 | 0.18 | 0.00 | 100 | 1014.2 |
| 20260903093251 | 77 | 56 | 0.0 | 0.0 | 0.00 | 0.18 | 0.00 | 100 | 1014.2 |
| 20260903093201 | 77 | 56 | 0.0 | 0.0 | 0.00 | 0.18 | 0.00 | 100 | 1014.1 |
| 20260903093040 | 77 | 56 | 0.0 | 0.0 | 0.00 | 0.18 | 0.00 | 100 | 1014.1 |
| 20260903092751 | 77 | 56 | 0.0 | 0.0 | 0.00 | 0.18 | 0.00 | 100 | 1014.1 |
| 20260903092647 | 77 | 56 | 0.0 | 0.0 | 0.00 | 0.18 | 0.00 | 100 | 1014.1 |
| 20260903092251 | 77 | 56 | 0.0 | 0.0 | 0.00 | 0.18 | 0.00 | 100 | 1014.1 |
| 20260903091751 | 77 | 56 | 0.0 | 0.0 | 0.00 | 0.18 | 0.00 | 100 | 1014.1 |
| 20260903091251 | 77 | 56 | 0.0 | 1.7 | 0.00 | 0.18 | 0.00 | 100 | 1014.1 |
| 20260903090751 | 77 | 28 | 0.0 | 0.0 | 0.00 | 0.18 | 0.00 | 100 | 1014.1 |
| 20260903090251 | 77 | 28 | 0.0 | 0.0 | 0.00 | 0.18 | 0.00 | 100 | 1014.2 |
| 20260903085751 | 77 | 28 | 0.0 | 0.0 | 0.00 | 0.18 | 0.00 | 100 | 1014.1 |
| 20260903085538 | 77 | 28 | 0.0 | 0.0 | 0.00 | 0.18 | 0.00 | 100 | 1014.1 |
| 20260903085251 | 77 | 28 | 0.0 | 0.0 | 0.00 | 0.18 | 0.00 | 100 | 1014.1 |
| 20260903085105 | 77 | 28 | 0.0 | 0.0 | 0.00 | 0.18 | 0.00 | 100 | 1014.1 |
| 20260903084751 | 77 | 28 | 0.0 | 0.0 | 0.00 | 0.18 | 0.00 | 100 | 1014.1 |
| 20260903084251 | 77 | 28 | 0.0 | 0.0 | 0.00 | 0.18 | 0.00 | 100 | 1014.0 |
| 20260903083954 | 77 | 28 | 0.0 | 0.0 | 0.00 | 0.18 | 0.00 | 100 | 1014.0 |
| 20260903083751 | 77 | 28 | 0.0 | 0.0 | 0.00 | 0.18 | 0.00 | 100 | 1014.0 |
| 20260903083251 | 77 | 28 | 0.0 | 0.0 | 0.00 | 0.18 | 0.00 | 100 | 1013.9 |
| 20260903083037 | 77 | 28 | 0.0 | 0.0 | 0.00 | 0.18 | 0.00 | 100 | 1014.0 |
| 20260903082751 | 77 | 28 | 0.0 | 0.0 | 0.00 | 0.18 | 0.00 | 100 | 1014.0 |
| 20260903082536 | 77 | 28 | 0.0 | 0.0 | 0.00 | 0.18 | 0.00 | 100 | 1014.0 |
| 20260903082251 | 77 | 28 | 0.0 | 0.0 | 0.00 | 0.18 | 0.00 | 100 | 1014.0 |
| 20260903081751 | 77 | 28 | 0.0 | 0.0 | 0.00 | 0.18 | 0.00 | 100 | 1014.0 |
| 20260903081551 | 78 | 28 | 0.0 | 0.0 | 0.00 | 0.18 | 0.00 | 100 | 1014.0 |
| 20260903081251 | 78 | 28 | 0.0 | 0.0 | 0.00 | 0.18 | 0.00 | 100 | 1014.0 |
| 20260903080752 | 78 | 28 | 0.0 | 0.0 | 0.00 | 0.18 | 0.00 | 100 | 1014.1 |
| 20260903080252 | 78 | 28 | 0.0 | 0.0 | 0.00 | 0.18 | 0.00 | 100 | 1014.1 |
| 20260903080037 | 78 | 28 | 0.0 | 0.0 | 0.00 | 0.18 | 0.00 | 100 | 1014.2 |
| 20260903075752 | 78 | 28 | 0.0 | 0.0 | 0.00 | 0.18 | 0.00 | 100 | 1014.2 |
| 20260903075252 | 78 | 28 | 0.0 | 0.0 | 0.00 | 0.18 | 0.00 | 100 | 1014.3 |
| 20260903074752 | 78 | 28 | 0.0 | 0.0 | 0.00 | 0.18 | 0.00 | 100 | 1014.3 |
| 20260903074252 | 78 | 28 | 0.0 | 0.0 | 0.00 | 0.18 | 0.00 | 100 | 1014.4 |
| 20260903073952 | 78 | 28 | 0.0 | 0.0 | 0.00 | 0.18 | 0.00 | 100 | 1014.4 |
| 20260903073752 | 78 | 28 | 0.0 | 0.0 | 0.00 | 0.18 | 0.00 | 100 | 1014.4 |
| 20260903073252 | 78 | 28 | 0.0 | 0.0 | 0.00 | 0.18 | 0.00 | 100 | 1014.4 |
| 20260903073049 | 78 | 28 | 0.0 | 2.6 | 0.00 | 0.18 | 0.00 | 100 | 1014.5 |
| 20260903072752 | 78 | 28 | 0.0 | 2.6 | 0.00 | 0.18 | 0.00 | 100 | 1014.5 |
| 20260903072252 | 78 | 351 | 0.9 | 1.7 | 0.00 | 0.18 | 0.00 | 100 | 1014.5 |
| 20260903072109 | 78 | 40 | 0.0 | 0.0 | 0.00 | 0.18 | 0.00 | 100 | 1014.5 |
| 20260903071752 | 78 | 40 | 0.0 | 0.0 | 0.00 | 0.18 | 0.00 | 100 | 1014.5 |
| 20260903071252 | 78 | 40 | 0.0 | 1.7 | 0.00 | 0.18 | 0.00 | 100 | 1014.4 |
| 20260903071012 | 78 | 53 | 0.9 | 3.5 | 0.00 | 0.18 | 0.00 | 100 | 1014.3 |
| 20260903070752 | 78 | 53 | 0.9 | 3.5 | 0.00 | 0.18 | 0.00 | 100 | 1014.3 |
| 20260903070252 | 78 | 59 | 0.0 | 2.6 | 0.00 | 0.18 | 0.00 | 100 | 1014.5 |
| 20260903070037 | 78 | 56 | 0.9 | 1.7 | 0.00 | 0.18 | 0.00 | 100 | 1014.7 |
| 20260903065752 | 78 | 56 | 0.9 | 1.7 | 0.00 | 0.18 | 0.00 | 100 | 1014.7 |
| 20260903065616 | 78 | 68 | 0.0 | 0.0 | 0.00 | 0.18 | 0.00 | 100 | 1014.9 |
| 20260903065252 | 78 | 68 | 0.0 | 0.0 | 0.00 | 0.18 | 0.00 | 100 | 1014.9 |
| 20260903064752 | 78 | 68 | 0.0 | 0.0 | 0.00 | 0.18 | 0.00 | 100 | 1014.9 |
| 20260903064252 | 78 | 68 | 0.0 | 0.0 | 0.00 | 0.18 | 0.00 | 100 | 1015.0 |
| 20260903063956 | 78 | 68 | 0.0 | 0.0 | 0.00 | 0.18 | 0.00 | 100 | 1014.9 |
| 20260903063752 | 78 | 68 | 0.0 | 0.0 | 0.00 | 0.18 | 0.00 | 100 | 1014.9 |
| 20260903063458 | 78 | 68 | 0.0 | 0.0 | 0.00 | 0.18 | 0.00 | 100 | 1014.9 |
| 20260903063252 | 78 | 68 | 0.0 | 0.0 | 0.00 | 0.18 | 0.00 | 100 | 1014.9 |
| 20260903062752 | 78 | 68 | 0.0 | 0.0 | 0.00 | 0.18 | 0.00 | 100 | 1015.0 |
| 20260903062536 | 78 | 68 | 0.0 | 0.0 | 0.00 | 0.18 | 0.00 | 100 | 1015.1 |
| 20260903062252 | 78 | 68 | 0.0 | 0.0 | 0.00 | 0.18 | 0.00 | 100 | 1015.1 |
| 20260903061752 | 78 | 68 | 0.0 | 1.7 | 0.00 | 0.18 | 0.00 | 100 | 1015.1 |
| 20260903061618 | 78 | 149 | 0.9 | 1.7 | 0.00 | 0.18 | 0.00 | 100 | 1015.1 |
| 20260903061252 | 78 | 149 | 0.9 | 1.7 | 0.00 | 0.18 | 0.00 | 100 | 1015.1 |
| 20260903060752 | 78 | 108 | 0.0 | 2.6 | 0.00 | 0.18 | 0.00 | 100 | 1015.1 |
| 20260903060252 | 78 | 112 | 0.0 | 0.0 | 0.00 | 0.18 | 0.00 | 100 | 1015.1 |
| 20260903060143 | 78 | 112 | 0.0 | 0.0 | 0.00 | 0.18 | 0.00 | 100 | 1015.0 |
| 20260903060048 | 78 | 112 | 0.0 | 0.0 | 0.00 | 0.18 | 0.00 | 100 | 1015.0 |
| 20260903055752 | 78 | 112 | 0.0 | 0.0 | 0.00 | 0.18 | 0.00 | 100 | 1015.0 |
| 20260903055713 | 78 | 112 | 0.0 | 0.0 | 0.00 | 0.18 | 0.00 | 100 | 1015.0 |
| 20260903055252 | 78 | 112 | 0.0 | 0.0 | 0.00 | 0.18 | 0.00 | 100 | 1015.0 |
| 20260903054956 | 78 | 112 | 0.0 | 0.0 | 0.00 | 0.18 | 0.00 | 100 | 1015.0 |
| 20260903054752 | 78 | 112 | 0.0 | 0.0 | 0.00 | 0.18 | 0.00 | 100 | 1015.0 |
| 20260903054736 | 73 | 56 | 0.0 | 0.0 | 0.00 | 0.88 | 0.00 | 100 | 1017.0 |
| 20260903054546 | 78 | 112 | 0.0 | 1.7 | 0.00 | 0.18 | 0.00 | 100 | 1015.0 |
| 20260903054252 | 78 | 112 | 0.0 | 1.7 | 0.00 | 0.18 | 0.00 | 100 | 1015.0 |
| 20260903053752 | 78 | 120 | 0.9 | 2.6 | 0.00 | 0.18 | 0.00 | 100 | 1015.0 |
| 20260903053624 | 78 | 81 | 0.0 | 0.0 | 0.00 | 0.18 | 0.00 | 100 | 1015.0 |
| 20260903053252 | 78 | 81 | 0.0 | 0.0 | 0.00 | 0.18 | 0.00 | 100 | 1015.0 |
| 20260903053043 | 78 | 81 | 0.0 | 0.0 | 0.00 | 0.18 | 0.00 | 100 | 1015.1 |
| 20260903052752 | 78 | 81 | 0.0 | 0.0 | 0.00 | 0.18 | 0.00 | 100 | 1015.1 |
| 20260903052252 | 78 | 81 | 0.0 | 2.6 | 0.00 | 0.18 | 0.00 | 100 | 1015.1 |
| 20260903052101 | 78 | 73 | 0.0 | 2.6 | 0.00 | 0.18 | 0.00 | 100 | 1015.3 |
| 20260903051752 | 78 | 73 | 0.0 | 2.6 | 0.00 | 0.18 | 0.00 | 100 | 1015.3 |
| 20260903051252 | 78 | 70 | 0.9 | 3.5 | 0.01 | 0.18 | 0.00 | 100 | 1015.4 |
| 20260903050752 | 78 | 47 | 0.0 | 1.7 | 0.01 | 0.18 | 0.00 | 100 | 1015.4 |
| 20260903050252 | 78 | 71 | 0.0 | 3.5 | 0.01 | 0.18 | 0.00 | 100 | 1015.4 |
| 20260903045752 | 78 | 109 | 2.6 | 3.5 | 0.01 | 0.18 | 0.00 | 100 | 1015.5 |
| 20260903045713 | 78 | 63 | 0.0 | 3.5 | 0.01 | 0.18 | 0.18 | 100 | 1015.6 |
| 20260903045628 | 78 | 63 | 0.0 | 3.5 | 0.01 | 0.18 | 0.18 | 100 | 1015.6 |
| 20260903045252 | 78 | 63 | 0.0 | 3.5 | 0.01 | 0.18 | 0.18 | 100 | 1015.6 |
| 20260903044752 | 78 | 98 | 1.7 | 3.5 | 0.01 | 0.18 | 0.18 | 100 | 1015.6 |
| 20260903044252 | 78 | 61 | 0.0 | 5.2 | 0.02 | 0.18 | 0.18 | 100 | 1015.7 |
| 20260903043752 | 78 | 78 | 2.6 | 4.3 | 0.02 | 0.18 | 0.18 | 100 | 1015.7 |
| 20260903043622 | 78 | 88 | 2.6 | 3.5 | 0.03 | 0.18 | 0.18 | 100 | 1015.9 |
| 20260903043253 | 78 | 88 | 2.6 | 3.5 | 0.03 | 0.18 | 0.18 | 100 | 1015.9 |
| 20260903042752 | 78 | 92 | 1.7 | 1.7 | 0.03 | 0.18 | 0.18 | 100 | 1015.9 |
| 20260903042614 | 79 | 216 | 0.0 | 0.9 | 0.03 | 0.18 | 0.18 | 100 | 1016.0 |
| 20260903042252 | 79 | 216 | 0.0 | 0.9 | 0.03 | 0.18 | 0.18 | 100 | 1016.0 |
| 20260903042023 | 78 | 217 | 0.0 | 2.6 | 0.03 | 0.18 | 0.18 | 100 | 1016.1 |
| 20260903041752 | 78 | 217 | 0.0 | 2.6 | 0.03 | 0.18 | 0.18 | 100 | 1016.1 |
| 20260903041252 | 79 | 33 | 0.0 | 0.0 | 0.03 | 0.17 | 0.17 | 100 | 1016.2 |
| 20260903041152 | 79 | 33 | 0.0 | 1.7 | 0.03 | 0.17 | 0.17 | 100 | 1016.2 |
| 20260903040753 | 79 | 33 | 0.0 | 1.7 | 0.03 | 0.17 | 0.17 | 100 | 1016.2 |
| 20260903040607 | 78 | 15 | 0.9 | 4.3 | 0.03 | 0.17 | 0.17 | 100 | 1016.2 |
| 20260903040253 | 78 | 15 | 0.9 | 4.3 | 0.03 | 0.17 | 0.17 | 100 | 1016.2 |
| 20260903040139 | 78 | 30 | 0.0 | 3.5 | 0.03 | 0.17 | 0.17 | 100 | 1016.3 |
| 20260903035753 | 78 | 30 | 0.0 | 3.5 | 0.03 | 0.17 | 0.17 | 100 | 1016.3 |
| 20260903035253 | 78 | 67 | 0.0 | 5.2 | 0.03 | 0.17 | 0.17 | 100 | 1016.2 |
| 20260903035153 | 78 | 80 | 3.5 | 4.3 | 0.03 | 0.17 | 0.17 | 100 | 1016.2 |
| 20260903034753 | 78 | 80 | 3.5 | 4.3 | 0.03 | 0.17 | 0.17 | 100 | 1016.2 |
| 20260903034253 | 78 | 95 | 0.9 | 4.3 | 0.03 | 0.16 | 0.16 | 100 | 1016.3 |
| 20260903034121 | 78 | 82 | 3.5 | 4.3 | 0.03 | 0.16 | 0.16 | 100 | 1016.3 |
| 20260903033753 | 78 | 82 | 3.5 | 4.3 | 0.03 | 0.16 | 0.16 | 100 | 1016.3 |
| 20260903033253 | 79 | 77 | 1.7 | 4.3 | 0.02 | 0.15 | 0.15 | 100 | 1016.4 |
| 20260903032753 | 78 | 61 | 3.5 | 4.3 | 0.02 | 0.15 | 0.15 | 100 | 1016.3 |
| 20260903032253 | 79 | 60 | 0.0 | 2.6 | 0.02 | 0.15 | 0.15 | 100 | 1016.3 |
| 20260903031753 | 79 | 29 | 0.9 | 1.7 | 0.02 | 0.15 | 0.15 | 100 | 1016.3 |
| 20260903031253 | 79 | 338 | 0.0 | 2.6 | 0.01 | 0.14 | 0.14 | 100 | 1016.3 |
| 20260903031113 | 79 | 29 | 0.0 | 0.0 | 0.01 | 0.14 | 0.14 | 100 | 1016.3 |
| 20260903030753 | 79 | 29 | 0.0 | 0.0 | 0.01 | 0.14 | 0.14 | 100 | 1016.3 |
| 20260903030253 | 79 | 29 | 0.0 | 0.0 | 0.01 | 0.14 | 0.14 | 100 | 1016.4 |
| 20260903025753 | 79 | 29 | 0.0 | 0.0 | 0.01 | 0.14 | 0.14 | 100 | 1016.5 |
| 20260903025253 | 79 | 29 | 0.0 | 0.0 | 0.01 | 0.14 | 0.14 | 100 | 1016.6 |
| 20260903024753 | 78 | 29 | 0.0 | 0.0 | 0.01 | 0.14 | 0.14 | 100 | 1016.6 |
| 20260903024253 | 79 | 29 | 0.0 | 0.0 | 0.00 | 0.13 | 0.13 | 100 | 1016.6 |
| 20260903023922 | 79 | 29 | 0.0 | 1.7 | 0.00 | 0.13 | 0.13 | 100 | 1016.6 |
| 20260903023753 | 79 | 29 | 0.0 | 1.7 | 0.00 | 0.13 | 0.13 | 100 | 1016.6 |
| 20260903023654 | 79 | 23 | 1.7 | 1.7 | 0.00 | 0.13 | 0.13 | 100 | 1016.5 |
| 20260903023253 | 79 | 23 | 1.7 | 1.7 | 0.00 | 0.13 | 0.13 | 100 | 1016.5 |
| 20260903023119 | 79 | 4 | 0.0 | 1.7 | 0.00 | 0.13 | 0.13 | 100 | 1016.5 |
| 20260903022753 | 79 | 4 | 0.0 | 1.7 | 0.00 | 0.13 | 0.13 | 100 | 1016.5 |
| 20260903022253 | 79 | 18 | 0.9 | 1.7 | 0.00 | 0.13 | 0.13 | 100 | 1016.6 |
| 20260903022023 | 79 | 171 | 0.9 | 0.9 | 0.00 | 0.13 | 0.13 | 100 | 1016.7 |
| 20260903021753 | 79 | 171 | 0.9 | 0.9 | 0.00 | 0.13 | 0.13 | 100 | 1016.7 |
| 20260903021617 | 79 | 172 | 0.0 | 4.3 | 0.00 | 0.13 | 0.13 | 100 | 1016.8 |
| 20260903021253 | 79 | 172 | 0.0 | 4.3 | 0.00 | 0.13 | 0.13 | 100 | 1016.8 |
| 20260903021118 | 78 | 165 | 2.6 | 3.5 | 0.00 | 0.13 | 0.13 | 100 | 1016.9 |
| 20260903020753 | 78 | 165 | 2.6 | 3.5 | 0.00 | 0.13 | 0.13 | 100 | 1016.9 |
| 20260903020253 | 79 | 1 | 0.0 | 0.0 | 0.00 | 0.13 | 0.13 | 100 | 1016.6 |
| 20260903015753 | 79 | 1 | 0.0 | 0.0 | 0.00 | 0.13 | 0.13 | 100 | 1016.5 |
| 20260903015253 | 79 | 1 | 0.0 | 0.0 | 0.00 | 0.13 | 0.13 | 100 | 1016.4 |
| 20260903014753 | 79 | 1 | 0.0 | 1.7 | 0.00 | 0.13 | 0.13 | 100 | 1016.2 |
| 20260903014253 | 79 | 53 | 0.0 | 0.0 | 0.00 | 0.13 | 0.13 | 100 | 1016.1 |
| 20260903013753 | 79 | 25 | 0.0 | 0.0 | 0.00 | 0.13 | 0.13 | 100 | 1016.0 |
| 20260903013618 | 79 | 25 | 0.0 | 0.0 | 0.00 | 0.13 | 0.13 | 100 | 1016.0 |
| 20260903013253 | 79 | 25 | 0.0 | 0.0 | 0.00 | 0.13 | 0.13 | 100 | 1016.0 |
| 20260903012753 | 79 | 25 | 0.0 | 0.0 | 0.00 | 0.13 | 0.13 | 100 | 1016.2 |
| 20260903012657 | 79 | 25 | 0.0 | 0.0 | 0.00 | 0.13 | 0.13 | 100 | 1016.3 |
| 20260903012253 | 79 | 25 | 0.0 | 0.0 | 0.00 | 0.13 | 0.13 | 100 | 1016.3 |
| 20260903012043 | 79 | 25 | 0.0 | 0.0 | 0.00 | 0.13 | 0.13 | 100 | 1016.3 |
| 20260903011753 | 79 | 25 | 0.0 | 0.0 | 0.00 | 0.13 | 0.13 | 100 | 1016.3 |
| 20260903011253 | 79 | 25 | 0.0 | 2.6 | 0.00 | 0.13 | 0.13 | 100 | 1016.4 |
| 20260903010753 | 79 | 348 | 2.6 | 2.6 | 0.00 | 0.13 | 0.13 | 100 | 1016.2 |
| 20260903010253 | 79 | 90 | 0.0 | 0.0 | 0.01 | 0.14 | 0.13 | 100 | 1016.1 |
| 20260903010040 | 79 | 90 | 0.0 | 0.0 | 0.01 | 0.14 | 0.13 | 100 | 1016.0 |
| 20260903005753 | 79 | 90 | 0.0 | 0.0 | 0.01 | 0.14 | 0.13 | 100 | 1016.0 |
| 20260903005253 | 79 | 90 | 0.0 | 0.0 | 0.01 | 0.14 | 0.13 | 100 | 1015.9 |
| 20260903004753 | 79 | 90 | 0.0 | 0.0 | 0.01 | 0.14 | 0.13 | 100 | 1015.7 |
| 20260903004253 | 79 | 90 | 0.0 | 0.0 | 0.01 | 0.14 | 0.13 | 100 | 1015.6 |
| 20260903004117 | 79 | 90 | 0.0 | 0.0 | 0.01 | 0.14 | 0.13 | 100 | 1015.6 |
| 20260903004044 | 79 | 90 | 0.0 | 0.0 | 0.01 | 0.14 | 0.13 | 100 | 1015.6 |
| 20260903003753 | 79 | 90 | 0.0 | 0.0 | 0.01 | 0.14 | 0.13 | 100 | 1015.6 |
| 20260903003454 | 79 | 90 | 0.0 | 0.0 | 0.01 | 0.14 | 0.13 | 100 | 1015.7 |
| 20260903003253 | 79 | 90 | 0.0 | 0.0 | 0.01 | 0.14 | 0.13 | 100 | 1015.7 |
| 20260903002753 | 79 | 90 | 0.0 | 0.0 | 0.01 | 0.14 | 0.13 | 100 | 1015.5 |
| 20260903002253 | 79 | 90 | 0.0 | 3.5 | 0.01 | 0.14 | 0.13 | 100 | 1015.1 |
| 20260903002122 | 79 | 81 | 1.7 | 3.5 | 0.02 | 0.14 | 0.13 | 100 | 1015.2 |
| 20260903001753 | 79 | 81 | 1.7 | 3.5 | 0.02 | 0.14 | 0.13 | 100 | 1015.2 |
| 20260903001253 | 79 | 15 | 0.0 | 0.0 | 0.02 | 0.14 | 0.13 | 100 | 1015.3 |
| 20260903001128 | 79 | 15 | 0.0 | 4.3 | 0.02 | 0.14 | 0.13 | 100 | 1015.2 |
| 20260903000754 | 79 | 15 | 0.0 | 4.3 | 0.02 | 0.14 | 0.13 | 100 | 1015.2 |
| 20260903000255 | 79 | 56 | 1.7 | 5.2 | 0.01 | 0.13 | 0.12 | 100 | 1015.2 |
| 20260903000039 | 79 | 46 | 2.6 | 5.2 | 0.01 | 0.13 | 0.12 | 100 | 1015.3 |
| 20260902235754 | 79 | 46 | 2.6 | 5.2 | 0.01 | 0.13 | 0.12 | 100 | 1015.3 |
| 20260902235254 | 79 | 8 | 0.0 | 5.2 | 0.01 | 0.13 | 0.12 | 100 | 1015.6 |
| 20260902234754 | 79 | 32 | 0.0 | 6.1 | 0.01 | 0.13 | 0.12 | 100 | 1015.8 |
| 20260902234523 | 79 | 47 | 5.2 | 5.2 | 0.01 | 0.13 | 0.12 | 100 | 1016.0 |
| 20260902234254 | 79 | 47 | 5.2 | 5.2 | 0.01 | 0.13 | 0.12 | 100 | 1016.0 |
| 20260902233754 | 79 | 37 | 1.7 | 5.2 | 0.01 | 0.13 | 0.12 | 100 | 1016.0 |
| 20260902233254 | 80 | 23 | 4.3 | 4.3 | 0.01 | 0.13 | 0.12 | 100 | 1016.0 |
| 20260902232754 | 79 | 14 | 3.5 | 5.2 | 0.01 | 0.13 | 0.12 | 100 | 1016.0 |
| 20260902232530 | 79 | 32 | 4.3 | 9.6 | 0.01 | 0.13 | 0.12 | 100 | 1016.1 |
| 20260902232254 | 79 | 32 | 4.3 | 9.6 | 0.01 | 0.13 | 0.12 | 100 | 1016.1 |
| 20260902231754 | 79 | 358 | 7.0 | 9.6 | 0.00 | 0.12 | 0.11 | 100 | 1016.2 |
| 20260902231254 | 80 | 358 | 4.3 | 10.4 | 0.00 | 0.12 | 0.11 | 100 | 1016.2 |
| 20260902231134 | 80 | 21 | 4.3 | 11.3 | 0.00 | 0.12 | 0.11 | 100 | 1016.3 |
| 20260902230754 | 80 | 21 | 4.3 | 11.3 | 0.00 | 0.12 | 0.11 | 100 | 1016.3 |
| 20260902230537 | 81 | 32 | 7.8 | 13.9 | 0.00 | 0.12 | 0.11 | 100 | 1016.1 |
| 20260902230254 | 81 | 32 | 7.8 | 13.9 | 0.00 | 0.12 | 0.11 | 100 | 1016.1 |
| 20260902225754 | 80 | 11 | 9.6 | 18.2 | 0.00 | 0.12 | 0.11 | 100 | 1016.1 |
| 20260902225536 | 81 | 358 | 7.0 | 16.5 | 0.00 | 0.12 | 0.11 | 100 | 1015.9 |
| 20260902225254 | 81 | 358 | 7.0 | 16.5 | 0.00 | 0.12 | 0.11 | 100 | 1015.9 |
| 20260902225024 | 82 | 9 | 6.1 | 17.4 | 0.00 | 0.12 | 0.11 | 100 | 1015.8 |
| 20260902224754 | 82 | 9 | 6.1 | 17.4 | 0.00 | 0.12 | 0.11 | 100 | 1015.8 |
| 20260902224254 | 83 | 343 | 5.2 | 19.1 | 0.00 | 0.12 | 0.11 | 100 | 1015.8 |
| 20260902223754 | 84 | 32 | 12.2 | 20.0 | 0.00 | 0.12 | 0.11 | 100 | 1015.6 |
| 20260902223254 | 84 | 1 | 4.3 | 9.6 | 0.00 | 0.12 | 0.11 | 100 | 1015.1 |
| 20260902223012 | 84 | 330 | 2.6 | 7.0 | 0.00 | 0.12 | 0.11 | 100 | 1015.0 |
| 20260902222754 | 84 | 330 | 2.6 | 7.0 | 0.00 | 0.12 | 0.11 | 100 | 1015.0 |
| 20260902222614 | 84 | 315 | 3.5 | 7.0 | 0.00 | 0.12 | 0.11 | 100 | 1015.1 |
| 20260902222254 | 84 | 315 | 3.5 | 7.0 | 0.00 | 0.12 | 0.11 | 100 | 1015.1 |
| 20260902222035 | 84 | 358 | 1.7 | 8.7 | 0.00 | 0.12 | 0.11 | 100 | 1015.3 |
| 20260902221754 | 84 | 358 | 1.7 | 8.7 | 0.00 | 0.12 | 0.11 | 100 | 1015.3 |
| 20260902221632 | 85 | 358 | 2.6 | 7.8 | 0.00 | 0.12 | 0.11 | 100 | 1015.2 |
| 20260902221254 | 85 | 358 | 2.6 | 7.8 | 0.00 | 0.12 | 0.11 | 100 | 1015.2 |
| 20260902221158 | 85 | 334 | 5.2 | 9.6 | 0.00 | 0.12 | 0.11 | 100 | 1015.1 |
| 20260902220754 | 85 | 334 | 5.2 | 9.6 | 0.00 | 0.12 | 0.11 | 100 | 1015.1 |
| 20260902220541 | 85 | 289 | 4.3 | 7.8 | 0.00 | 0.12 | 0.11 | 100 | 1014.9 |
| 20260902220254 | 85 | 289 | 4.3 | 7.8 | 0.00 | 0.12 | 0.11 | 100 | 1014.9 |
| 20260902220054 | 85 | 279 | 1.7 | 5.2 | 0.00 | 0.12 | 0.11 | 100 | 1014.9 |
| 20260902215754 | 85 | 279 | 1.7 | 5.2 | 0.00 | 0.12 | 0.11 | 100 | 1014.9 |
| 20260902215254 | 85 | 286 | 1.7 | 7.0 | 0.00 | 0.12 | 0.11 | 100 | 1014.7 |
| 20260902215123 | 85 | 303 | 0.0 | 5.2 | 0.00 | 0.12 | 0.11 | 100 | 1014.6 |
| 20260902214754 | 85 | 303 | 0.0 | 5.2 | 0.00 | 0.12 | 0.11 | 100 | 1014.6 |
| 20260902214609 | 85 | 337 | 2.6 | 5.2 | 0.00 | 0.12 | 0.11 | 100 | 1014.6 |
| 20260902214254 | 85 | 337 | 2.6 | 5.2 | 0.00 | 0.12 | 0.11 | 100 | 1014.6 |
| 20260902214050 | 85 | 292 | 0.9 | 2.6 | 0.00 | 0.12 | 0.11 | 100 | 1014.4 |
| 20260902213754 | 85 | 292 | 0.9 | 2.6 | 0.00 | 0.12 | 0.11 | 100 | 1014.4 |
| 20260902213254 | 85 | 296 | 0.0 | 2.6 | 0.00 | 0.12 | 0.11 | 100 | 1014.3 |
| 20260902212754 | 85 | 344 | 1.7 | 6.1 | 0.00 | 0.12 | 0.11 | 100 | 1014.4 |
| 20260902212257 | 86 | 281 | 2.6 | 6.1 | 0.00 | 0.12 | 0.11 | 100 | 1014.7 |
| 20260902212254 | 86 | 281 | 2.6 | 6.1 | 0.00 | 0.12 | 0.11 | 100 | 1014.7 |
| 20260902211754 | 86 | 302 | 0.0 | 6.1 | 0.00 | 0.12 | 0.11 | 100 | 1014.9 |
| 20260902211257 | 86 | 331 | 0.9 | 8.7 | 0.00 | 0.12 | 0.11 | 100 | 1014.8 |
| 20260902211254 | 86 | 331 | 0.9 | 8.7 | 0.00 | 0.12 | 0.11 | 100 | 1014.8 |
| 20260902211039 | 86 | 330 | 6.1 | 6.1 | 0.00 | 0.12 | 0.11 | 100 | 1014.6 |
| 20260902210754 | 86 | 330 | 6.1 | 6.1 | 0.00 | 0.12 | 0.11 | 100 | 1014.6 |
| 20260902210541 | 86 | 336 | 4.3 | 4.3 | 0.00 | 0.12 | 0.11 | 100 | 1014.5 |
| 20260902210254 | 86 | 336 | 4.3 | 4.3 | 0.00 | 0.12 | 0.11 | 100 | 1014.5 |
| 20260902210039 | 86 | 347 | 3.5 | 3.5 | 0.00 | 0.12 | 0.11 | 100 | 1014.4 |
| 20260902205754 | 86 | 347 | 3.5 | 3.5 | 0.00 | 0.12 | 0.11 | 100 | 1014.4 |
| 20260902205546 | 86 | 330 | 2.6 | 6.1 | 0.00 | 0.12 | 0.11 | 100 | 1014.5 |
| 20260902205254 | 86 | 330 | 2.6 | 6.1 | 0.00 | 0.12 | 0.11 | 100 | 1014.5 |
| 20260902205032 | 86 | 343 | 4.3 | 6.1 | 0.00 | 0.12 | 0.11 | 100 | 1014.8 |
| 20260902204754 | 86 | 343 | 4.3 | 6.1 | 0.00 | 0.12 | 0.11 | 100 | 1014.8 |
| 20260902204254 | 86 | 317 | 1.7 | 7.8 | 0.00 | 0.12 | 0.11 | 100 | 1014.8 |
| 20260902203754 | 86 | 329 | 2.6 | 6.1 | 0.00 | 0.12 | 0.11 | 100 | 1014.7 |
| 20260902203619 | 86 | 350 | 4.3 | 7.0 | 0.00 | 0.12 | 0.11 | 100 | 1014.7 |
| 20260902203254 | 86 | 350 | 4.3 | 7.0 | 0.00 | 0.12 | 0.11 | 100 | 1014.7 |
| 20260902203043 | 86 | 1 | 3.5 | 7.0 | 0.00 | 0.12 | 0.11 | 100 | 1014.7 |
| 20260902202754 | 86 | 1 | 3.5 | 7.0 | 0.00 | 0.12 | 0.11 | 100 | 1014.7 |
| 20260902202618 | 86 | 329 | 0.9 | 5.2 | 0.00 | 0.12 | 0.11 | 100 | 1014.7 |
| 20260902202254 | 86 | 329 | 0.9 | 5.2 | 0.00 | 0.12 | 0.11 | 100 | 1014.7 |
| 20260902202033 | 86 | 305 | 5.2 | 7.0 | 0.00 | 0.12 | 0.11 | 100 | 1014.8 |
| 20260902201754 | 86 | 305 | 5.2 | 7.0 | 0.00 | 0.12 | 0.11 | 100 | 1014.8 |
| 20260902201254 | 86 | 330 | 5.2 | 7.0 | 0.00 | 0.12 | 0.11 | 100 | 1014.9 |
| 20260902200754 | 86 | 336 | 1.7 | 5.2 | 0.00 | 0.12 | 0.11 | 100 | 1015.0 |
| 20260902200541 | 86 | 322 | 3.5 | 5.2 | 0.00 | 0.12 | 0.11 | 100 | 1015.1 |
| 20260902200255 | 86 | 322 | 3.5 | 5.2 | 0.00 | 0.12 | 0.11 | 100 | 1015.1 |
| 20260902200028 | 85 | 348 | 4.3 | 7.0 | 0.00 | 0.12 | 0.11 | 100 | 1015.2 |
| 20260902195754 | 85 | 348 | 4.3 | 7.0 | 0.00 | 0.12 | 0.11 | 100 | 1015.2 |
| 20260902195538 | 85 | 303 | 0.9 | 5.2 | 0.00 | 0.12 | 0.11 | 100 | 1015.2 |
| 20260902195254 | 85 | 303 | 0.9 | 5.2 | 0.00 | 0.12 | 0.11 | 100 | 1015.2 |
| 20260902194754 | 85 | 317 | 4.3 | 7.0 | 0.00 | 0.12 | 0.11 | 100 | 1015.4 |
| 20260902194255 | 85 | 309 | 3.5 | 6.1 | 0.00 | 0.12 | 0.11 | 100 | 1015.5 |
| 20260902194010 | 85 | 348 | 4.3 | 7.8 | 0.00 | 0.12 | 0.11 | 100 | 1015.5 |
| 20260902193755 | 85 | 348 | 4.3 | 7.8 | 0.00 | 0.12 | 0.11 | 100 | 1015.5 |
| 20260902193255 | 86 | 348 | 3.5 | 10.4 | 0.00 | 0.12 | 0.11 | 100 | 1015.7 |
| 20260902192755 | 88 | 358 | 6.1 | 8.7 | 0.00 | 0.12 | 0.11 | 100 | 1015.6 |
| 20260902192255 | 89 | 1 | 5.2 | 12.2 | 0.00 | 0.12 | 0.11 | 100 | 1015.6 |
| 20260902192012 | 90 | 5 | 10.4 | 10.4 | 0.00 | 0.12 | 0.11 | 100 | 1015.6 |
| 20260902191755 | 90 | 5 | 10.4 | 10.4 | 0.00 | 0.12 | 0.11 | 100 | 1015.6 |
| 20260902191255 | 91 | 37 | 7.0 | 9.6 | 0.00 | 0.12 | 0.11 | 100 | 1015.6 |
| 20260902191008 | 90 | 39 | 2.6 | 6.1 | 0.00 | 0.12 | 0.11 | 100 | 1015.6 |
| 20260902190755 | 90 | 39 | 2.6 | 6.1 | 0.00 | 0.12 | 0.11 | 100 | 1015.6 |
| 20260902190255 | 89 | 15 | 3.5 | 6.1 | 0.00 | 0.26 | 0.11 | 100 | 1015.6 |
| 20260902190007 | 89 | 68 | 2.6 | 5.2 | 0.00 | 0.26 | 0.11 | 100 | 1015.8 |
| 20260902185755 | 89 | 68 | 2.6 | 5.2 | 0.00 | 0.26 | 0.11 | 100 | 1015.8 |
| 20260902185255 | 89 | 54 | 3.5 | 4.3 | 0.00 | 0.26 | 0.11 | 100 | 1015.8 |
| 20260902185113 | 89 | 61 | 2.6 | 6.1 | 0.00 | 0.26 | 0.11 | 100 | 1015.9 |
| 20260902184755 | 89 | 61 | 2.6 | 6.1 | 0.00 | 0.26 | 0.11 | 100 | 1015.9 |
| 20260902184255 | 91 | 98 | 5.2 | 5.2 | 0.00 | 0.26 | 0.11 | 100 | 1016.0 |
| 20260902183950 | 92 | 334 | 3.5 | 7.0 | 0.00 | 0.26 | 0.11 | 100 | 1016.1 |
| 20260902183755 | 92 | 334 | 3.5 | 7.0 | 0.00 | 0.26 | 0.11 | 100 | 1016.1 |
| 20260902183255 | 91 | 358 | 3.5 | 7.0 | 0.00 | 0.26 | 0.11 | 100 | 1016.1 |
| 20260902182755 | 91 | 2 | 1.7 | 8.7 | 0.00 | 0.26 | 0.11 | 100 | 1016.2 |
| 20260902182255 | 92 | 355 | 6.1 | 6.1 | 0.00 | 0.26 | 0.11 | 100 | 1016.3 |
| 20260902182022 | 93 | 4 | 1.7 | 4.3 | 0.00 | 0.26 | 0.11 | 100 | 1016.3 |
| 20260902181755 | 93 | 4 | 1.7 | 4.3 | 0.00 | 0.26 | 0.11 | 100 | 1016.3 |
| 20260902181255 | 92 | 30 | 0.9 | 7.0 | 0.00 | 0.26 | 0.11 | 100 | 1016.3 |
| 20260902181133 | 96 | 357 | 6.1 | 7.0 | 0.00 | 0.26 | 0.11 | 100 | 1016.4 |
| 20260902180755 | 96 | 357 | 6.1 | 7.0 | 0.00 | 0.26 | 0.11 | 100 | 1016.4 |
| 20260902180255 | 97 | 99 | 0.9 | 7.0 | 0.00 | 0.26 | 0.11 | 100 | 1016.5 |
| 20260902175755 | 96 | 330 | 4.3 | 5.2 | 0.00 | 0.26 | 0.11 | 100 | 1016.6 |
| 20260902175255 | 94 | 47 | 0.9 | 5.2 | 0.00 | 0.26 | 0.11 | 100 | 1016.6 |
| 20260902174755 | 93 | 70 | 0.9 | 7.0 | 0.00 | 0.26 | 0.11 | 100 | 1016.7 |
| 20260902174255 | 96 | 340 | 6.1 | 6.1 | 0.00 | 0.26 | 0.11 | 100 | 1016.7 |
| 20260902174157 | 96 | 36 | 3.5 | 5.2 | 0.00 | 0.26 | 0.11 | 100 | 1016.7 |
| 20260902173755 | 96 | 36 | 3.5 | 5.2 | 0.00 | 0.26 | 0.11 | 100 | 1016.7 |
| 20260902173321 | 96 | 327 | 5.2 | 7.0 | 0.00 | 0.26 | 0.11 | 100 | 1016.8 |
| 20260902173255 | 96 | 351 | 3.5 | 7.0 | 0.00 | 0.26 | 0.11 | 100 | 1016.7 |
| 20260902172755 | 96 | 327 | 5.2 | 7.0 | 0.00 | 0.26 | 0.11 | 100 | 1016.8 |
| 20260902172255 | 96 | 101 | 2.6 | 5.2 | 0.00 | 0.26 | 0.11 | 100 | 1016.9 |
| 20260902172159 | 96 | 21 | 2.6 | 4.3 | 0.00 | 0.26 | 0.11 | 100 | 1017.0 |
| 20260902171755 | 96 | 21 | 2.6 | 4.3 | 0.00 | 0.26 | 0.11 | 100 | 1017.0 |
| 20260902171255 | 96 | 37 | 0.9 | 6.1 | 0.00 | 0.26 | 0.11 | 100 | 1017.1 |
| 20260902171124 | 94 | 9 | 1.7 | 6.1 | 0.00 | 0.26 | 0.11 | 100 | 1017.2 |
| 20260902170755 | 94 | 9 | 1.7 | 6.1 | 0.00 | 0.26 | 0.11 | 100 | 1017.2 |
| 20260902170255 | 90 | 26 | 5.2 | 7.0 | 0.00 | 0.26 | 0.11 | 100 | 1017.4 |
| 20260902170037 | 91 | 59 | 2.6 | 6.1 | 0.00 | 0.26 | 0.11 | 100 | 1017.5 |
| 20260902165755 | 91 | 59 | 2.6 | 6.1 | 0.00 | 0.26 | 0.11 | 100 | 1017.5 |
| 20260902165255 | 91 | 22 | 5.2 | 6.1 | 0.00 | 0.26 | 0.11 | 100 | 1017.5 |
| 20260902164755 | 95 | 50 | 3.5 | 7.8 | 0.00 | 0.26 | 0.11 | 100 | 1017.6 |
| 20260902164255 | 95 | 336 | 1.7 | 7.8 | 0.00 | 0.26 | 0.11 | 100 | 1017.7 |
| 20260902164012 | 90 | 2 | 5.2 | 7.8 | 0.01 | 0.26 | 0.11 | 100 | 1017.8 |
| 20260902163755 | 90 | 2 | 5.2 | 7.8 | 0.01 | 0.26 | 0.11 | 100 | 1017.8 |
| 20260902163255 | 87 | 2 | 2.6 | 7.0 | 0.02 | 0.26 | 0.11 | 100 | 1017.7 |
| 20260902163134 | 88 | 11 | 6.1 | 10.4 | 0.05 | 0.26 | 0.11 | 100 | 1017.7 |
| 20260902162755 | 88 | 11 | 6.1 | 10.4 | 0.05 | 0.26 | 0.11 | 100 | 1017.7 |
| 20260902162255 | 91 | 14 | 5.2 | 10.4 | 0.09 | 0.26 | 0.11 | 100 | 1017.7 |
| 20260902162126 | 93 | 355 | 7.0 | 11.3 | 0.10 | 0.26 | 0.11 | 100 | 1017.7 |
| 20260902161755 | 93 | 355 | 7.0 | 11.3 | 0.10 | 0.26 | 0.11 | 100 | 1017.7 |
| 20260902161255 | 92 | 7 | 6.1 | 8.7 | 0.10 | 0.26 | 0.11 | 100 | 1017.8 |
| 20260902161113 | 90 | 299 | 0.9 | 10.4 | 0.10 | 0.26 | 0.11 | 100 | 1017.9 |
| 20260902160755 | 90 | 299 | 0.9 | 10.4 | 0.10 | 0.26 | 0.11 | 100 | 1017.9 |
| 20260902160255 | 92 | 347 | 7.8 | 9.6 | 0.10 | 0.26 | 0.11 | 100 | 1018.0 |
| 20260902160111 | 88 | 358 | 4.3 | 7.8 | 0.10 | 0.26 | 0.11 | 100 | 1018.0 |
| 20260902155755 | 88 | 358 | 4.3 | 7.8 | 0.10 | 0.26 | 0.11 | 100 | 1018.0 |
| 20260902155255 | 87 | 1 | 2.6 | 7.8 | 0.10 | 0.26 | 0.11 | 100 | 1017.9 |
| 20260902154755 | 88 | 340 | 1.7 | 6.1 | 0.10 | 0.26 | 0.11 | 100 | 1018.0 |
| 20260902154256 | 91 | 15 | 4.3 | 5.2 | 0.10 | 0.26 | 0.11 | 100 | 1017.9 |
| 20260902154036 | 89 | 4 | 0.0 | 0.0 | 0.09 | 0.25 | 0.10 | 100 | 1018.0 |
| 20260902153756 | 89 | 4 | 0.0 | 0.0 | 0.09 | 0.25 | 0.10 | 100 | 1018.0 |
| 20260902153256 | 84 | 4 | 0.0 | 3.5 | 0.08 | 0.24 | 0.09 | 100 | 1018.1 |
| 20260902153126 | 84 | 70 | 1.7 | 7.8 | 0.05 | 0.21 | 0.06 | 100 | 1018.1 |
| 20260902152756 | 84 | 70 | 1.7 | 7.8 | 0.05 | 0.21 | 0.06 | 100 | 1018.1 |
| 20260902152256 | 87 | 0 | 3.5 | 7.8 | 0.00 | 0.16 | 0.01 | 100 | 1018.1 |
| 20260902151756 | 92 | 358 | 1.7 | 5.2 | 0.00 | 0.16 | 0.01 | 100 | 1018.2 |
| 20260902151256 | 91 | 19 | 2.6 | 2.6 | 0.00 | 0.16 | 0.01 | 100 | 1018.1 |
| 20260902150948 | 91 | 29 | 1.7 | 6.1 | 0.00 | 0.16 | 0.01 | 100 | 1018.1 |
| 20260902150756 | 91 | 29 | 1.7 | 6.1 | 0.00 | 0.16 | 0.01 | 100 | 1018.1 |
| 20260902150256 | 92 | 49 | 2.6 | 4.3 | 0.00 | 0.16 | 0.01 | 100 | 1018.0 |
| 20260902145756 | 91 | 85 | 2.6 | 4.3 | 0.00 | 0.16 | 0.01 | 100 | 1018.0 |
| 20260902145256 | 93 | 113 | 2.6 | 3.5 | 0.00 | 0.16 | 0.01 | 100 | 1018.0 |
| 20260902144756 | 93 | 12 | 0.0 | 2.6 | 0.00 | 0.16 | 0.01 | 100 | 1018.0 |
| 20260902144256 | 89 | 14 | 1.7 | 4.3 | 0.00 | 0.16 | 0.01 | 100 | 1018.0 |